Weather History for MRLB - May, 2013

Change the Weather History Date:

Thursday, May 23, 2013

  Actual Average Record
Temperature  
Mean Temperature 82 °F -  
Max Temperature 91 °F 87 °F 96 °F (1998)
Min Temperature 73 °F 75 °F 71 °F (2011)
Cooling Degree Days 17    
Growing Degree Days 32 (Base 50)    
Moisture  
Dew Point 73 °F    
Average Humidity 76    
Maximum Humidity 95    
Minimum Humidity 44    
Precipitation  
Precipitation 0.16 in - - ()
Sea Level Pressure  
Sea Level Pressure 29.83 in    
Wind  
Wind Speed 2 mph ()    
Max Wind Speed 12 mph    
Max Gust Speed -    
Visibility 6.7 miles    
Events Fog , Rain    
Averages and records for this station are not official NWS values.
T = Trace of Precipitation, MM = Missing Value Source: Averaged Metar Reports

Daily Weather History Graph

Daily Weather History Graph

Search for Another Location

Airport or City:

Trip Planner

Search our weather history database for the weather conditions in past years. The results will help you decide how hot, cold, wet, or windy it might be!

Date:

Astronomy

May. 23, 2013 Rise Set
Actual Time 5:19 AM CST 5:58 PM CST
Civil Twilight 4:56 AM CST 6:21 PM CST
Nautical Twilight 4:29 AM CST 6:48 PM CST
Astronomical Twilight 4:03 AM CST 7:15 PM CST
Moon 4:42 PM CST (5/23) 3:46 AM CST (5/23)
Length of Visible Light 13h 25m
Length of Day
12h 39m
Waxing Gibbous, 97% of the Moon is Illuminated
May 23
Waxing Gibbous
May 24
Full
May 31
Last Quarter
Jun 8
New
Jun 16
First Quarter

Hourly Weather History & Observations

Time (CST) Temp. Heat Index Dew Point Humidity Pressure Visibility Wind Dir Wind Speed Gust Speed Precip Events Conditions
6:00 AM 73 °F - 72 °F 95% 29.86 in 2 mi Calm Calm - - Fog Partial Fog
6:00 AM 73.4 °F - 71.6 °F 94% 29.85 in 1.9 mi Calm Calm - N/A   Mostly Cloudy
7:00 AM 75.2 °F - 71.6 °F 89% 29.87 in 3.7 mi South 1.2 mph - N/A   Scattered Clouds
7:36 AM 77.0 °F - 73.4 °F 89% 29.88 in 6.2 mi Calm Calm - N/A   Scattered Clouds
8:00 AM 80.6 °F 85.4 °F 73.4 °F 79% 29.88 in 6.2 mi WNW 1.2 mph - N/A   Mostly Cloudy
9:00 AM 82 °F - 73 °F 68% 29.90 in 12 mi NW 1.2 mph - -   Scattered Clouds
9:00 AM 82.4 °F 88.2 °F 73.4 °F 74% 0.29 in 6.2 mi NW 1.2 mph - N/A   Scattered Clouds
10:00 AM 84.2 °F 89.6 °F 71.6 °F 66% 29.87 in 6.2 mi WNW 2.3 mph - N/A   Scattered Clouds
11:00 AM 87.8 °F 93.8 °F 71.6 °F 58% 29.84 in 6.2 mi East 2.3 mph - N/A   Scattered Clouds
12:00 PM 90 °F - 71 °F 44% 29.84 in 12 mi Calm Calm - -   Mostly Cloudy
12:00 PM 89.6 °F 96.2 °F 71.6 °F 55% 29.83 in 6.2 mi ESE 2.3 mph - N/A   Scattered Clouds
1:00 PM 86.0 °F 93.4 °F 73.4 °F 66% 29.82 in 6.2 mi SSW 6.9 mph - N/A   Mostly Cloudy
2:00 PM 87.8 °F 95.6 °F 73.4 °F 62% 29.78 in 6.2 mi West 11.5 mph - N/A   Scattered Clouds
2:10 PM 80.6 °F 85.4 °F 73.4 °F 79% 29.79 in 6.2 mi WSW 11.5 mph - N/A Rain Rain
3:00 PM 81 °F - 74 °F 73% 29.79 in 11 mi South 2.3 mph - -   Overcast
3:00 PM 80.6 °F 85.4 °F 73.4 °F 79% 29.77 in 6.2 mi South 2.3 mph - N/A   Mostly Cloudy
4:00 PM 78.8 °F - 73.4 °F 83% 29.77 in 6.2 mi WSW 4.6 mph - N/A   Mostly Cloudy
5:00 PM 78.8 °F - 75.2 °F 89% 29.78 in 6.2 mi SSE 3.5 mph - N/A   Overcast
6:00 PM 79 °F - 74 °F 79% 29.81 in 12 mi SE 3.5 mph - -   Partly Cloudy
6:00 PM 78.8 °F - 73.4 °F 83% 29.80 in 6.2 mi SE 3.5 mph - N/A   Overcast
7:00 PM 78.8 °F - 73.4 °F 83% 29.82 in 6.2 mi ESE 2.3 mph - N/A   Overcast
8:00 PM 78.8 °F - 73.4 °F 83% 29.85 in 6.2 mi ESE 5.8 mph - N/A   Overcast